Quantico, VA

4:54 PM EST on February 06, 2016 (GMT -0500)
Quantico Marine Corps Air Facility

Weather History for KNYG - November, 2013

Change the Weather History Date:

Thursday, November 28, 2013

  Actual Average Record
Temperature  
Mean Temperature 33 °F -  
Max Temperature 39 °F 51 °F 84 °F (2015)
Min Temperature 27 °F 34 °F 23 °F (2002)
Degree Days  
Heating Degree Days 32    
Moisture  
Dew Point 16 °F    
Average Humidity 53    
Maximum Humidity 81    
Minimum Humidity 33    
Precipitation  
Precipitation 0.00 in - - ()
Sea Level Pressure  
Sea Level Pressure 30.38 in    
Wind  
Wind Speed 9 mph (NW)    
Max Wind Speed 15 mph    
Max Gust Speed 22 mph    
Visibility 10 miles    
Events      
Averages and records for this station are not official NWS values.
T = Trace of Precipitation, MM = Missing Value Source: NWS Daily Summary

Daily Weather History Graph

Daily Weather History Graph

Search for Another Location

Airport or City:

Trip Planner

Search our weather history database for the weather conditions in past years. The results will help you decide how hot, cold, wet, or windy it might be!

Date:

Astronomy

Nov. 28, 2013 Rise Set
Actual Time 7:05 AM EST 4:49 PM EST
Civil Twilight 6:35 AM EST 5:18 PM EST
Nautical Twilight 6:03 AM EST 5:51 PM EST
Astronomical Twilight 5:31 AM EST 6:23 PM EST
Moon 2:08 AM EST (11/28) 1:54 PM EST (11/28)
Length of Visible Light 10h 42m
Length of Day
9h 44m
Waning Crescent, 22% of the Moon is Illuminated
Nov 28
Waning Crescent
Dec 2
New
Dec 9
First Quarter
Dec 17
Full
Dec 25
Last Quarter

Hourly Weather History & Observations

Time (EST) Temp. Windchill Dew Point Humidity Pressure Visibility Wind Dir Wind Speed Gust Speed Precip Events Conditions
12:56 AM 30.9 °F 20.2 °F 8.1 °F 38% 30.14 in 10.0 mi NNW 15.0 mph 21.9 mph N/A   Clear
1:56 AM 30.0 °F 21.1 °F 9.0 °F 41% 30.17 in 10.0 mi NW 10.4 mph 20.7 mph N/A   Clear
2:56 AM 30.0 °F 21.7 °F 10.0 °F 43% 30.20 in 10.0 mi NNW 9.2 mph 20.7 mph N/A   Clear
3:56 AM 30.0 °F 20.5 °F 10.9 °F 45% 30.24 in 10.0 mi NNW 11.5 mph - N/A   Partly Cloudy
4:56 AM 28.9 °F 25.2 °F 12.0 °F 49% 30.28 in 10.0 mi SW 3.5 mph - N/A   Clear
5:56 AM 28.0 °F 19.3 °F 12.0 °F 51% 30.30 in 10.0 mi NNW 9.2 mph - N/A   Clear
6:56 AM 27.0 °F - 12.9 °F 56% 30.34 in 10.0 mi Calm Calm - N/A   Clear
7:56 AM 28.0 °F 24.2 °F 19.9 °F 72% 30.38 in 10.0 mi NW 3.5 mph - N/A   Clear
8:56 AM 30.9 °F 25.2 °F 14.0 °F 50% 30.41 in 10.0 mi NW 5.8 mph - N/A   Clear
9:56 AM 34.0 °F 26.0 °F 12.9 °F 42% 30.42 in 10.0 mi North 10.4 mph - N/A   Clear
10:56 AM 35.1 °F 28.6 °F 14.0 °F 42% 30.42 in 10.0 mi NNW 8.1 mph - N/A   Clear
11:56 AM 37.0 °F 29.3 °F 12.9 °F 37% 30.41 in 10.0 mi NW 11.5 mph - N/A   Clear
12:56 PM 39.0 °F 32.8 °F 15.1 °F 38% 30.40 in 10.0 mi North 9.2 mph - N/A   Partly Cloudy
1:56 PM 39.9 °F 33.9 °F 14.0 °F 35% 30.40 in 10.0 mi North 9.2 mph - N/A   Clear
2:56 PM 39.9 °F 32.9 °F 12.9 °F 33% 30.41 in 10.0 mi NW 11.5 mph - N/A   Clear
3:56 PM 39.9 °F 37.8 °F 12.9 °F 33% 30.41 in 10.0 mi Variable 3.5 mph - N/A   Clear
4:56 PM 37.9 °F 32.7 °F 18.0 °F 45% 30.43 in 10.0 mi SSW 6.9 mph - N/A   Clear
5:56 PM 34.0 °F 31.0 °F 21.0 °F 59% 30.45 in 10.0 mi Variable 3.5 mph - N/A   Clear
6:56 PM 30.0 °F 25.2 °F 24.1 °F 79% 30.46 in 10.0 mi NW 4.6 mph - N/A   Clear
7:56 PM 28.9 °F 22.8 °F 21.9 °F 75% 30.47 in 10.0 mi WNW 5.8 mph - N/A   Clear
8:56 PM 28.9 °F 23.9 °F 23.0 °F 78% 30.48 in 10.0 mi NW 4.6 mph - N/A   Scattered Clouds
9:56 PM 28.9 °F 23.9 °F 23.0 °F 78% 30.49 in 10.0 mi NW 4.6 mph - N/A   Mostly Cloudy
10:56 PM 28.0 °F 22.8 °F 23.0 °F 81% 30.51 in 10.0 mi NW 4.6 mph - N/A   Partly Cloudy
11:56 PM 30.0 °F - 21.9 °F 72% 30.50 in 10.0 mi Calm Calm - N/A   Clear